Jackpot

Texas Poker Multi Jackpot System

Kini Telah hadir Jackpot SUPER ROYAL FLUSH

Kini Telah hadir Jackpot 2000 (khusus table VIP keatas).

Ikutilah global jackpot yang tersedia di system kami, dengan system jackpot terbaru dan pertama di indonesia, anda dapat membeli jackpot dengan harga 100 rupiah saja dan menangkan hadiahnya hingga puluhan juta rupiah.

Jackpot bukanlah suatu keharusan untuk dibeli, namun kami memberikan suatu fitur tambahan untuk member tercinta dari www.mustikapoker.org.

Terdapat tiga pilihan harga jackpot yang bisa anda beli yaitu :100,500,1000 dan 2000(khusus table VIP Keatas) rupiah.

Hadiah dari Multi jackpot system www.mustikapoker.org

  1. full house x 10 harga jackpot yang anda beli.
      (contoh:anda membeli 1000 maka:1000 X10 = 10.000)
  2. four of kind x 250 harga jackpot yang anda beli
      (contoh:anda membeli 1000 maka:1000 X250 = 250.000)
  3. Straight flush x 1200
      (contoh:anda membeli 1000 maka:1000 X1200 = 1.200.000)
  4. Royal flush x 10000 harga jackpot yang anda beli
      (contoh:anda membeli 1000 maka:1000 X10000 = 10.000.000)
  5. SUPER ROYAL FLUSH x 30000 harga jackpot yang anda beli
      (contoh:anda membeli 1000 maka:1000 X30000 = 30.000.000)

Kondisi kartu

  1. full house adalah kondisi kartu dimana kartu anda dan kartu tengah dengan total 7 kartu bisa mendapatkan nilai 5 kartu dengan kombinasi 1 tris(three of kind) dan 1 pair, contoh 3 kartu 10 dan 2 kartu 5
  2. Four of kind adalah kondisi kartu dimana kartu anda dan kartu tengah dengan total 7 kartu bisa mendapatkan nilai 5 kartu dengan kombinasi 4 kartu yang sama jumlah dan 1 kartu apapun juga contoh anda mendapatkan 4 buah kartu angka 3 dan 1 kartu apapun.
  3. Staright flush adalah kondisi kartu dimana kartu anda dan kartu tengah dengan total 7 kartu bisa mendapatkan nilai 5 kartu dengan kombinasi seri / staright dengan kembang yang sama contoh : urutan kartu dari angka 5, 6, 7, 8 , 9 10 dengan kembang yg sama misalnya as hati
  4. Royal flush adalah kondisi kartu dimana kartu anda dan kartu tengah dengan total 7 kartu bisa mendapatkan nilai 5 kartu dengan kombinasi seri / staright dengan kembang yang sama tetapi kartu tersebut haruslah dimulai dari 10. contoh 10, Queen, Jack, King dan aces dengan kembang yang sama
  5. Super Royal flush adalah kondisi kartu dimana Kedua kartu anda digabung dengan 3 kartu pertama meja haruslah royal flush. contoh kartu anda 10,Queen kembang sama dan 3 kartu pertama meja adalah Jack, King dan aces dengan kembang yang sama

Demikian adalah penjelasan dari Multi Jackpot www.mustikapoker.org terima kasih dan selamat bermain salam hoki dari kami

Texas Poker Jackpot Winner

TOP SUPER ROYAL FLUSH
No.TanggalNamaPriceWin
127/05 12:13DILAN00Super Royal flush6,000,000
227/05 11:55BUNGASERAISuper Royal flush15,000,000
327/05 10:07DONO90Super Royal flush15,000,000
427/05 09:46TC622NGLYTSuper Royal flush30,000,000
526/05 18:59GACO777Super Royal flush15,000,000
TOP ROYAL FLUSH
No.TanggalNamaPriceWin
127/05 14:27BOOOONNNN6Royal flush20,000,000
227/05 14:11ARB88758Royal flush10,000,000
327/05 13:57GODSPED777Royal flush2,000,000
427/05 13:43ARSAN123Royal flush1,000,000
527/05 13:42JOSEAGARENRoyal flush1,000,000
TOP STRAIGHT FLUSH
No.TanggalNamaPriceWin
127/05 14:27ANARK01Straight Flush600,000
227/05 14:25VETERAN800Straight Flush600,000
327/05 14:24R0Y4L86666Straight Flush240,000
427/05 14:24TRISMAN46Straight Flush600,000
527/05 14:23F49ADA87Straight Flush240,000
LATEST JACKPOT
No.TanggalNamaPriceWin
127/05 14:27SHEKAKEFull House2,000
227/05 14:27TIYO23Full House2,000
327/05 14:27B28F2566Full House1,000
427/05 14:27JUARAWAEFull House5,000
527/05 14:27KINGSXFull House5,000
627/05 14:27KII1NGFull House5,000
727/05 14:27DWBTDICK33Full House5,000
827/05 14:27ROYALASIAFull House5,000
927/05 14:27GUDILLLFull House2,000
1027/05 14:27REDX88Four Of A Kind125,000
1127/05 14:27ABF2F1C7Full House5,000
1227/05 14:27MV427199Full House5,000
1327/05 14:27CRUZ2016Full House20,000
1427/05 14:27WOLVERONFull House20,000
1527/05 14:27MAMAT4Full House10,000
1627/05 14:27GOCAR21Four Of A Kind125,000
1727/05 14:27JEFRIAGUSTFull House1,000
1827/05 14:27UNTUNGJARFull House10,000
1927/05 14:27PENKSKY82Full House2,000
2027/05 14:27BOOOONNNN6Royal flush20,000,000
2127/05 14:27WEAREHEREUFull House5,000
2227/05 14:27CHAFIDFull House10,000
2327/05 14:27ALIAKBAR86Full House5,000
2427/05 14:27DEWA9X9Full House20,000
2527/05 14:27PIAL4Full House5,000
2627/05 14:27SUTEPOKFull House5,000
2727/05 14:27HDC17Full House2,000
2827/05 14:27LOLI2255Full House5,000
2927/05 14:27ACAMARICAFull House1,000
3027/05 14:27SAGEDOYFour Of A Kind25,000
3127/05 14:27NOBAT10Full House2,000
3227/05 14:27GWDAPAT90Full House5,000
3327/05 14:27C005B471Full House1,000
3427/05 14:27TEMPLUNG92Full House2,000
3527/05 14:27CHOTENGFull House5,000
3627/05 14:27KODAM_04Full House20,000
3727/05 14:27KUNUI66Full House500
3827/05 14:27UWVR7G5KYPFull House5,000
3927/05 14:27POLO_Full House1,000
4027/05 14:27ANARK01Straight Flush600,000
4127/05 14:27OJOKALAHOKFull House10,000
4227/05 14:27KRIWELFull House20,000
4327/05 14:27KALUBAEJOKFull House10,000
4427/05 14:27RACHMAT36Full House5,000
4527/05 14:27UJUNG_BATUFull House2,000
4627/05 14:27JF02Full House2,000
4727/05 14:27MUDARQQFull House10,000
4827/05 14:27UCOK_65Full House5,000
4927/05 14:27JESICA007Four Of A Kind250,000
5027/05 14:27BAWAN05Full House1,000

Domino Multi Jackpot System

Ikutilah global jackpot yang tersedia di system kami, dengan system jackpot terbaru dan pertama di indonesia, anda dapat membeli jackpot dengan harga 100 rupiah saja dan menangkan hadiahnya hingga puluhan juta rupiah.

Jackpot bukanlah suatu keharusan untuk dibeli, namun kami memberikan suatu fitur tambahan untuk member tercinta dari www.mustikapoker.org.

Terdapat tiga pilihan harga jackpot yang bisa anda beli yaitu :100,500 dan 1000 rupiah.

Hadiah dari Multi jackpot system www.mustikapoker.org

  1. Murni Kecil x 50 harga jackpot yang anda beli.
      (contoh:anda membeli 1000 maka:1000 X 50 = 50.000)
  2. Murni Besar x 50 harga jackpot yang anda beli
      (contoh:anda membeli 1000 maka:1000 X 50 = 50.000)
  3. BALAK x 100 harga jackpot yang anda beli
      (contoh:anda membeli 1000 maka:1000 X 100 = 100.000)
  4. ENAM DEWA x 6666 harga jackpot yang anda beli
      (contoh:anda membeli 1000 maka:1000 X 6666 = 6.666.000)

Demikian adalah penjelasan dari Multi Jackpot www.mustikapoker.org terima kasih dan selamat bermain salam hoki dari kami

Domino Jackpot Winner

TOP ENAM DEWA
No.TanggalNamaPriceWin
127/05 13:57ON99ON99murni enam3,333,000
227/05 12:29MURNI2110murni enam666,600
327/05 05:24UWOK1213murni enam6,666,000
427/05 02:28ANDHY417murni enam3,333,000
527/05 01:57PON991murni enam6,666,000
TOP BALAK
No.TanggalNamaPriceWin
127/05 14:26ZNTRSHINOBbalak100,000
227/05 14:25USSPbalak10,000
327/05 14:24MARYANTO70balak100,000
427/05 14:10DESY66balak50,000
527/05 14:03THOM420balak100,000
LATEST JACKPOT
No.TanggalNamaPriceWin
127/05 14:27WGEME1TXWVmurni kecil25,000
227/05 14:27KPN72murni kecil50,000
327/05 14:27BAKIY199murni kecil5,000
427/05 14:26ALTAIR556murni besar25,000
527/05 14:26KERONTANlucky992,500
627/05 14:26ZNTRSHINOBbalak100,000
727/05 14:25USSPbalak10,000
827/05 14:25KAYO04murni kecil25,000
927/05 14:24MARYANTO70balak100,000
1027/05 14:23HGJDmurni besar50,000
1127/05 14:22F4T1M4H111murni kecil5,000
1227/05 14:22YOSE76lucky9910,000
1327/05 14:22IAIHmurni besar50,000
1427/05 14:21MPIP89murni besar50,000
1527/05 14:21ALOT1010murni besar5,000
1627/05 14:21L300FUmurni kecil25,000
1727/05 14:21KAMUMAU1murni besar25,000
1827/05 14:20GTS5U0YHCPmurni besar50,000
1927/05 14:20DAZAGOmurni besar50,000
2027/05 14:20YUSUP82murni besar50,000
2127/05 14:20DDD40FA0murni besar50,000
2227/05 14:20GTS5U0YHCPmurni kecil50,000
2327/05 14:19APPO11murni besar50,000
2427/05 14:19JOGLO6666murni kecil50,000
2527/05 14:19P3N3murni besar50,000
2627/05 14:19LADUSIGHmurni kecil25,000
2727/05 14:18PASAR_150murni besar5,000
2827/05 14:18MATTUJU_murni besar5,000
2927/05 14:18CIUSANG88murni kecil5,000
3027/05 14:18RHYNIElucky9950,000
3127/05 14:18HUSQ1murni besar50,000
3227/05 14:17DANKJE99murni besar50,000
3327/05 14:17VHY86murni kecil50,000
3427/05 14:17ROYSEDERHAmurni kecil25,000
3527/05 14:17PRIMUS9murni besar5,000
3627/05 14:16RHYNIEmurni besar50,000
3727/05 14:16AZKHA883lucky99200,000
3827/05 14:16YUSUP82murni kecil50,000
3927/05 14:16SAYAPKANANmurni kecil25,000
4027/05 14:15HLFNNWSVB8murni kecil25,000
4127/05 14:15LB888089murni besar25,000
4227/05 14:15KIJOJOBODOmurni besar50,000
4327/05 14:15ENDELLmurni kecil5,000
4427/05 14:14DDMIT999murni kecil50,000
4527/05 14:14TAREK_9999murni besar50,000
4627/05 14:14SDAWETTTmurni kecil50,000
4727/05 14:13A4SAMmurni besar50,000
4827/05 14:13NGARAWU030murni kecil50,000
4927/05 14:13MOUL12murni kecil5,000
5027/05 14:12HERU447murni besar5,000

Ceme Multi Jackpot System

Jackpot dilihat dari gabungan kartu pemain dengan kartu bandar. Bandar harus membeli jackpot sebanyak jumlah player yang sedang duduk. Sebagai contoh bila terdapat 3 pemain duduk bermain, dan bandar memutuskan untuk membeli jackpot Rp 1.000, maka pada periode tersebut bandar akan membeli jackpot sebanyak 3xRp1.000 = Rp3.000.

Jackpot bukanlah suatu keharusan untuk dibeli, namun kami memberikan suatu fitur tambahan untuk member tercinta dari www.mustikapoker.org.

Terdapat tiga pilihan harga jackpot yang bisa anda beli yaitu :100,500 dan 1000 rupiah.

Hadiah dari Multi jackpot system www.mustikapoker.org

  1. Murni Kecil x 50 harga jackpot yang anda beli.
      (contoh:anda membeli 1000 maka:1000 X 50 = 50.000)
  2. Murni Besar x 50 harga jackpot yang anda beli
      (contoh:anda membeli 1000 maka:1000 X 50 = 50.000)
  3. BALAK x 200 harga jackpot yang anda beli
      (contoh:anda membeli 1000 maka:1000 X 200 = 200.000)
  4. ENAM DEWA x 6666 harga jackpot yang anda beli
      (contoh:anda membeli 1000 maka:1000 X 6666 = 6.666.000)

Demikian adalah penjelasan dari Multi Jackpot www.mustikapoker.org terima kasih dan selamat bermain salam hoki dari kami

Ceme Jackpot Winner

TOP ENAM DEWA
No.TanggalNamaPriceWin
127/05 13:20PLEWWEKmurni enam3,333,000
227/05 13:05BUDEX69murni enam6,666,000
327/05 13:01H1R9S69murni enam3,333,000
427/05 13:01D3W1_89murni enam3,333,000
527/05 12:50SHEMSULmurni enam666,600
TOP BALAK
No.TanggalNamaPriceWin
127/05 14:27ALI779balak200,000
227/05 14:26GYMADbalak200,000
327/05 14:26T4DWINNER80balak200,000
427/05 14:25OKEBOSQUEbalak100,000
527/05 14:25MOCCA1994balak200,000
LATEST JACKPOT
No.TanggalNamaPriceWin
127/05 14:27BAAGUSS89murni besar5,000
227/05 14:27BOBOTCUYmurni besar25,000
327/05 14:27MA20murni kecil5,000
427/05 14:27KEMPA21murni kecil50,000
527/05 14:27QIRAI999murni kecil5,000
627/05 14:27ALI779balak200,000
727/05 14:27GAYAW19murni besar5,000
827/05 14:27CIKALONG3murni besar5,000
927/05 14:27OCTA96murni besar50,000
1027/05 14:27SHADOET303murni kecil25,000
1127/05 14:26F4A6570Cmurni kecil25,000
1227/05 14:26GYMADbalak200,000
1327/05 14:26SOMBANG000murni kecil50,000
1427/05 14:26SUJARWO02murni kecil5,000
1527/05 14:26T4DWINNER80balak200,000
1627/05 14:26OPINKmurni besar50,000
1727/05 14:26FIMKARICmurni besar50,000
1827/05 14:25ABANG72SOFmurni kecil50,000
1927/05 14:25ECHO2018murni besar5,000
2027/05 14:25MANDAGI_11murni kecil25,000
2127/05 14:25RW9AY9JRXEmurni kecil5,000
2227/05 14:25ELLENAPmurni kecil50,000
2327/05 14:25PANDE001murni besar50,000
2427/05 14:25DOBELKIUmurni besar50,000
2527/05 14:25LEEAANmurni besar50,000
2627/05 14:25DIMASQQ94murni kecil50,000
2727/05 14:25OKEBOSQUEbalak100,000
2827/05 14:25VISTAMERAHmurni kecil50,000
2927/05 14:25A9ZFA9BYYmurni kecil50,000
3027/05 14:25MXKING79murni kecil50,000
3127/05 14:25KEMPA21murni kecil50,000
3227/05 14:25IDHAN23murni kecil25,000
3327/05 14:25MOCCA1994balak200,000
3427/05 14:25S1K4TH4815murni kecil50,000
3527/05 14:25JUNO33murni kecil50,000
3627/05 14:25BUDAIRImurni kecil50,000
3727/05 14:25DZIKRI166murni kecil50,000
3827/05 14:25SRISUGmurni besar50,000
3927/05 14:24PANDE001murni kecil50,000
4027/05 14:24THHELBOYmurni kecil25,000
4127/05 14:24OYOT66murni besar25,000
4227/05 14:24RZK09balak200,000
4327/05 14:24XXKANCILmurni kecil50,000
4427/05 14:24YKB881734murni besar5,000
4527/05 14:24PENTIL121balak200,000
4627/05 14:24JUAROO99balak200,000
4727/05 14:24MR_CHAN13murni besar50,000
4827/05 14:24ERISKECEmurni kecil50,000
4927/05 14:24PELATOM99murni kecil5,000
5027/05 14:24PAUJAN86murni kecil25,000